APJ313 RJBB-RJAA

Flight info

Callsign APJ313
Flight time 1h 4m
Altitude 35000
Route TOMOH DOPDA KEC Y43 ISEBI Y81 RUTAS
Aircraft A320/M-SDE3FGHIRWY/LB1

Departure

Time 2026-05-07 11:29
Airport Kansai International Airport (RJBB)

Arrival

Time 2026-05-07 12:34
Airport Narita International Airport (RJAA)
Time Latitude Longitude Altitude Speed Heading
2026-05-07 11:11 34.43619 135.23000 29 ft 0 kts 82°
2026-05-07 11:21 34.43604 135.23003 29 ft 3 kts 210°
2026-05-07 11:22 34.43597 135.22962 29 ft 6 kts 253°
2026-05-07 11:22 34.43574 135.22913 29 ft 7 kts 255°
2026-05-07 11:22 34.43607 135.22868 29 ft 8 kts 320°
2026-05-07 11:22 34.43675 135.22800 29 ft 20 kts 321°
2026-05-07 11:23 34.43786 135.22719 29 ft 14 kts 17°
2026-05-07 11:23 34.43861 135.22779 29 ft 12 kts
2026-05-07 11:23 34.43938 135.22758 29 ft 10 kts 25°
2026-05-07 11:23 34.43987 135.22824 29 ft 12 kts 52°
2026-05-07 11:24 34.44051 135.22919 29 ft 17 kts 50°
2026-05-07 11:24 34.44125 135.23026 29 ft 16 kts 51°
2026-05-07 11:24 34.44190 135.23126 29 ft 16 kts 51°
2026-05-07 11:24 34.44256 135.23221 29 ft 14 kts 50°
2026-05-07 11:25 34.44331 135.23225 29 ft 11 kts 330°
2026-05-07 11:25 34.44401 135.23264 29 ft 14 kts 49°
2026-05-07 11:25 34.44471 135.23368 29 ft 21 kts 51°
2026-05-07 11:25 34.44563 135.23505 29 ft 20 kts 51°
2026-05-07 11:26 34.44644 135.23626 30 ft 17 kts 51°
2026-05-07 11:26 34.44715 135.23731 30 ft 15 kts 51°
2026-05-07 11:26 34.44786 135.23837 31 ft 17 kts 51°
2026-05-07 11:26 34.44872 135.23966 31 ft 20 kts 49°
2026-05-07 11:27 34.44945 135.24074 32 ft 15 kts 51°
2026-05-07 11:27 34.45025 135.24084 30 ft 12 kts 323°
2026-05-07 11:27 34.45080 135.24021 32 ft 10 kts 316°
2026-05-07 11:27 34.45097 135.23959 32 ft 8 kts 239°
2026-05-07 11:28 34.45054 135.23893 32 ft 15 kts 232°
2026-05-07 11:28 34.44869 135.23618 31 ft 75 kts 230°
2026-05-07 11:28 34.44411 135.22939 29 ft 131 kts 231°
2026-05-07 11:28 34.43753 135.21956 50 ft 171 kts 230°
2026-05-07 11:29 34.42989 135.20826 602 ft 173 kts 231°
2026-05-07 11:29 34.42585 135.19452 1246 ft 178 kts 259°
2026-05-07 11:29 34.42459 135.17953 1934 ft 179 kts 261°
2026-05-07 11:29 34.42342 135.16382 2274 ft 198 kts 261°
2026-05-07 11:30 34.42187 135.14634 2538 ft 218 kts 261°
2026-05-07 11:30 34.42000 135.12726 2987 ft 234 kts 261°
2026-05-07 11:30 34.41755 135.10691 3439 ft 253 kts 253°
2026-05-07 11:30 34.40926 135.08794 4139 ft 260 kts 227°
2026-05-07 11:31 34.39448 135.07515 4946 ft 265 kts 208°
2026-05-07 11:31 34.37793 135.06505 5815 ft 267 kts 208°
2026-05-07 11:31 34.36120 135.05489 6622 ft 270 kts 208°
2026-05-07 11:31 34.34437 135.04466 7450 ft 271 kts 208°
2026-05-07 11:32 34.31068 135.02408 9171 ft 271 kts 210°
2026-05-07 11:32 34.29347 135.01459 10001 ft 274 kts 202°
2026-05-07 11:32 34.27451 135.01021 10699 ft 283 kts 187°
2026-05-07 11:33 34.25401 135.01223 10974 ft 311 kts 172°
2026-05-07 11:33 34.23210 135.01830 11136 ft 334 kts 171°
2026-05-07 11:33 34.20870 135.02481 11263 ft 356 kts 171°
2026-05-07 11:33 34.18384 135.03166 11383 ft 376 kts 171°
2026-05-07 11:34 34.15779 135.03881 11660 ft 389 kts 171°
2026-05-07 11:34 34.13116 135.04612 12155 ft 395 kts 171°
2026-05-07 11:34 34.10420 135.05350 12692 ft 399 kts 171°
2026-05-07 11:34 34.07700 135.06096 13202 ft 403 kts 171°
2026-05-07 11:35 34.04950 135.06846 13694 ft 407 kts 171°
2026-05-07 11:35 34.02176 135.07597 14123 ft 410 kts 171°
2026-05-07 11:35 33.99413 135.08343 14520 ft 414 kts 171°
2026-05-07 11:35 33.96590 135.09106 14948 ft 418 kts 170°
2026-05-07 11:36 33.93798 135.10170 15375 ft 425 kts 160°
2026-05-07 11:36 33.91173 135.11855 15807 ft 432 kts 149°
2026-05-07 11:36 33.88820 135.14131 16221 ft 438 kts 138°
2026-05-07 11:36 33.86804 135.16915 16641 ft 444 kts 131°
2026-05-07 11:37 33.84871 135.19830 17051 ft 447 kts 131°
2026-05-07 11:37 33.82925 135.22757 17460 ft 449 kts 131°
2026-05-07 11:37 33.80962 135.25701 17873 ft 452 kts 131°
2026-05-07 11:37 33.78989 135.28651 18266 ft 455 kts 131°
2026-05-07 11:38 33.76997 135.31623 18616 ft 457 kts 131°
2026-05-07 11:38 33.74994 135.34608 18963 ft 460 kts 131°
2026-05-07 11:38 33.72979 135.37606 19313 ft 462 kts 132°
2026-05-07 11:38 33.70957 135.40617 19654 ft 464 kts 132°
2026-05-07 11:39 33.68929 135.43641 19994 ft 467 kts 132°
2026-05-07 11:39 33.66886 135.46687 20320 ft 469 kts 132°
2026-05-07 11:39 33.64837 135.49738 20629 ft 471 kts 131°
2026-05-07 11:39 33.62775 135.52807 20952 ft 473 kts 132°
2026-05-07 11:40 33.60705 135.55879 21265 ft 475 kts 132°
2026-05-07 11:40 33.58619 135.58972 21582 ft 477 kts 132°
2026-05-07 11:40 33.56554 135.62034 21873 ft 479 kts 132°
2026-05-07 11:40 33.54426 135.65188 22161 ft 482 kts 132°
2026-05-07 11:41 33.52340 135.68276 22464 ft 483 kts 132°
2026-05-07 11:41 33.50244 135.71433 22759 ft 486 kts 128°
2026-05-07 11:41 33.48487 135.74923 23030 ft 492 kts 118°
2026-05-07 11:41 33.47251 135.78765 23306 ft 497 kts 107°
2026-05-07 11:42 33.46594 135.82835 23578 ft 501 kts 96°
2026-05-07 11:42 33.46536 135.87013 23802 ft 504 kts 86°
2026-05-07 11:42 33.47081 135.91164 24024 ft 506 kts 77°
2026-05-07 11:42 33.47896 135.95271 24247 ft 508 kts 77°
2026-05-07 11:43 33.48709 135.99387 24481 ft 509 kts 77°
2026-05-07 11:43 33.49244 136.02118 24645 ft 509 kts 77°
2026-05-07 11:43 33.50051 136.06255 24922 ft 509 kts 77°
2026-05-07 11:43 33.50853 136.10382 25255 ft 508 kts 77°
2026-05-07 11:44 33.51655 136.14502 25569 ft 508 kts 77°
2026-05-07 11:44 33.52456 136.18624 25903 ft 507 kts 77°
2026-05-07 11:44 33.53255 136.22733 26249 ft 506 kts 77°
2026-05-07 11:44 33.54052 136.26845 26595 ft 506 kts 77°
2026-05-07 11:45 33.54845 136.30947 26923 ft 505 kts 77°
2026-05-07 11:45 33.55634 136.35045 27251 ft 505 kts 78°
2026-05-07 11:45 33.56420 136.39138 27596 ft 504 kts 78°
2026-05-07 11:45 33.57205 136.43241 27966 ft 503 kts 78°
2026-05-07 11:46 33.57987 136.47320 28314 ft 502 kts 78°
2026-05-07 11:46 33.58771 136.51406 28653 ft 502 kts 78°
2026-05-07 11:46 33.59552 136.55483 28995 ft 502 kts 78°
2026-05-07 11:46 33.60331 136.59561 29352 ft 501 kts 78°
2026-05-07 11:47 33.61107 136.63637 29719 ft 500 kts 78°
2026-05-07 11:47 33.61879 136.67700 30069 ft 500 kts 78°
2026-05-07 11:47 33.62650 136.71766 30360 ft 499 kts 78°
2026-05-07 11:47 33.63415 136.75823 30628 ft 499 kts 78°
2026-05-07 11:48 33.64178 136.79881 30965 ft 497 kts 78°
2026-05-07 11:48 33.64927 136.83866 31274 ft 496 kts 78°
2026-05-07 11:48 33.65687 136.87901 31561 ft 496 kts 78°
2026-05-07 11:48 33.66448 136.91935 31849 ft 495 kts 78°
2026-05-07 11:49 33.67207 136.95964 32134 ft 495 kts 78°
2026-05-07 11:49 33.67959 136.99992 32440 ft 494 kts 78°
2026-05-07 11:49 33.68704 137.04008 32785 ft 492 kts 78°
2026-05-07 11:49 33.69447 137.08008 33096 ft 491 kts 78°
2026-05-07 11:50 33.70047 137.12038 33377 ft 489 kts 85°
2026-05-07 11:50 33.70231 137.16109 33642 ft 488 kts 89°
2026-05-07 11:50 33.70350 137.20188 33912 ft 488 kts 89°
2026-05-07 11:50 33.70470 137.24264 34161 ft 488 kts 89°
2026-05-07 11:51 33.70590 137.28330 34411 ft 487 kts 89°
2026-05-07 11:51 33.70711 137.32398 34663 ft 487 kts 89°
2026-05-07 11:51 33.70833 137.36459 34884 ft 487 kts 89°
2026-05-07 11:52 33.71081 137.44592 34977 ft 489 kts 89°
2026-05-07 11:52 33.71315 137.52770 34975 ft 490 kts 89°
2026-05-07 11:53 33.71544 137.60948 34977 ft 490 kts 89°
2026-05-07 11:53 33.71765 137.69131 34975 ft 490 kts 89°
2026-05-07 11:54 33.71978 137.77318 34973 ft 490 kts 89°
2026-05-07 11:54 33.72187 137.85505 34977 ft 491 kts 90°
2026-05-07 11:55 33.72394 137.93694 34971 ft 491 kts 90°
2026-05-07 11:55 33.72597 138.01839 34975 ft 491 kts 90°
2026-05-07 11:56 33.72797 138.10042 34979 ft 491 kts 90°
2026-05-07 11:56 33.72982 138.18241 34980 ft 491 kts 90°
2026-05-07 11:57 33.73162 138.26448 34976 ft 491 kts 91°
2026-05-07 11:57 33.73341 138.34644 34978 ft 491 kts 91°
2026-05-07 11:58 33.73514 138.42845 34977 ft 491 kts 91°
2026-05-07 11:58 33.73683 138.51035 34982 ft 490 kts 91°
2026-05-07 11:59 33.73845 138.59214 34982 ft 490 kts 91°
2026-05-07 11:59 33.74005 138.67400 34979 ft 489 kts 91°
2026-05-07 12:00 33.74154 138.75568 34978 ft 489 kts 91°
2026-05-07 12:00 33.74299 138.83731 34981 ft 489 kts 90°
2026-05-07 12:01 33.75570 138.91778 34966 ft 494 kts 71°
2026-05-07 12:01 33.78717 138.99123 34975 ft 496 kts 60°
2026-05-07 12:02 33.82284 139.06229 34973 ft 497 kts 60°
2026-05-07 12:02 33.85851 139.13348 34972 ft 497 kts 60°
2026-05-07 12:03 33.89412 139.20484 34968 ft 497 kts 60°
2026-05-07 12:03 33.92945 139.27584 34966 ft 498 kts 60°
2026-05-07 12:04 33.96503 139.34741 34969 ft 498 kts 60°
2026-05-07 12:04 34.00065 139.41909 34971 ft 499 kts 60°
2026-05-07 12:05 34.03626 139.49085 34968 ft 499 kts 60°
2026-05-07 12:05 34.07247 139.56227 34972 ft 500 kts 55°
2026-05-07 12:06 34.11555 139.62808 34974 ft 501 kts 52°
2026-05-07 12:06 34.15924 139.69378 34977 ft 501 kts 52°
2026-05-07 12:07 34.20281 139.75960 34978 ft 502 kts 52°
2026-05-07 12:07 34.24633 139.82548 34970 ft 502 kts 52°
2026-05-07 12:08 34.28988 139.89144 34967 ft 502 kts 52°
2026-05-07 12:08 34.33339 139.95748 34968 ft 502 kts 52°
2026-05-07 12:09 34.37660 140.02316 34961 ft 502 kts 52°
2026-05-07 12:09 34.42019 140.08935 34959 ft 503 kts 52°
2026-05-07 12:10 34.46310 140.15634 34953 ft 503 kts 58°
2026-05-07 12:10 34.50021 140.22812 34945 ft 503 kts 59°
2026-05-07 12:11 34.53735 140.30008 34942 ft 503 kts 59°
2026-05-07 12:11 34.57452 140.37205 34937 ft 504 kts 59°
2026-05-07 12:12 34.61171 140.44423 34939 ft 504 kts 59°
2026-05-07 12:12 34.64881 140.51655 34938 ft 505 kts 60°
2026-05-07 12:13 34.68661 140.58854 34939 ft 506 kts 53°
2026-05-07 12:13 34.73772 140.64709 34935 ft 507 kts 32°
2026-05-07 12:13 34.76844 140.66780 34930 ft 505 kts 21°
2026-05-07 12:14 34.80145 140.68195 34926 ft 502 kts 11°
2026-05-07 12:14 34.87020 140.69346 34928 ft 499 kts
2026-05-07 12:15 34.93926 140.70205 34921 ft 499 kts
2026-05-07 12:15 35.00795 140.71061 34924 ft 500 kts
2026-05-07 12:15 35.04248 140.71619 34800 ft 503 kts
2026-05-07 12:16 35.07629 140.72755 34576 ft 506 kts 18°
2026-05-07 12:16 35.10842 140.74548 34299 ft 509 kts 28°
2026-05-07 12:16 35.13863 140.76865 33206 ft 518 kts 32°
2026-05-07 12:16 35.16867 140.79323 32249 ft 522 kts 33°
2026-05-07 12:17 35.19879 140.81850 31172 ft 528 kts 34°
2026-05-07 12:17 35.22893 140.84410 30230 ft 530 kts 34°
2026-05-07 12:17 35.25925 140.86987 29317 ft 530 kts 33°
2026-05-07 12:17 35.28966 140.89551 28289 ft 530 kts 33°
2026-05-07 12:18 35.32013 140.92095 27250 ft 531 kts 33°
2026-05-07 12:18 35.35063 140.94629 26116 ft 526 kts 32°
2026-05-07 12:18 35.38081 140.97135 24376 ft 524 kts 32°
2026-05-07 12:18 35.41096 140.99647 22841 ft 520 kts 32°
2026-05-07 12:19 35.44041 141.02085 21749 ft 501 kts 29°
2026-05-07 12:19 35.47059 141.03993 20986 ft 477 kts 19°
2026-05-07 12:19 35.50138 141.05239 20178 ft 456 kts 10°
2026-05-07 12:19 35.53220 141.05845 19402 ft 445 kts
2026-05-07 12:20 35.56283 141.05860 18651 ft 436 kts 351°
2026-05-07 12:20 35.59257 141.05369 17891 ft 429 kts 347°
2026-05-07 12:20 35.62201 141.04784 17147 ft 428 kts 347°
2026-05-07 12:20 35.65134 141.04209 16453 ft 426 kts 347°
2026-05-07 12:21 35.68050 141.03642 15775 ft 424 kts 346°
2026-05-07 12:21 35.70938 141.02993 15110 ft 418 kts 340°
2026-05-07 12:21 35.73632 141.01772 14478 ft 409 kts 328°
2026-05-07 12:21 35.76026 140.99962 13860 ft 399 kts 317°
2026-05-07 12:22 35.78046 140.97683 13206 ft 390 kts 307°
2026-05-07 12:22 35.79656 140.95054 12636 ft 380 kts 297°
2026-05-07 12:22 35.80970 140.92269 12070 ft 374 kts 296°
2026-05-07 12:22 35.82258 140.89515 11509 ft 369 kts 296°
2026-05-07 12:23 35.83509 140.86843 11241 ft 357 kts 296°
2026-05-07 12:23 35.84723 140.84252 11108 ft 342 kts 296°
2026-05-07 12:23 35.85884 140.81770 10995 ft 327 kts 296°
2026-05-07 12:23 35.87011 140.79354 10887 ft 314 kts 295°
2026-05-07 12:24 35.88063 140.77092 10756 ft 303 kts 295°
2026-05-07 12:24 35.89090 140.74883 10646 ft 292 kts 295°
2026-05-07 12:24 35.90086 140.72739 10436 ft 285 kts 295°
2026-05-07 12:24 35.91058 140.70641 10344 ft 282 kts 295°
2026-05-07 12:25 35.92028 140.68540 10224 ft 281 kts 295°
2026-05-07 12:25 35.92993 140.66448 10100 ft 281 kts 295°
2026-05-07 12:25 35.93959 140.64354 9983 ft 280 kts 295°
2026-05-07 12:25 35.94927 140.62258 9769 ft 283 kts 296°
2026-05-07 12:26 35.95885 140.60182 9299 ft 285 kts 296°
2026-05-07 12:26 35.96864 140.58056 8833 ft 286 kts 294°
2026-05-07 12:26 35.97511 140.55794 8526 ft 276 kts 276°
2026-05-07 12:26 35.97527 140.53461 8133 ft 271 kts 258°
2026-05-07 12:27 35.96934 140.51281 7746 ft 268 kts 242°
2026-05-07 12:27 35.96246 140.49155 7328 ft 269 kts 261°
2026-05-07 12:27 35.96524 140.46886 6953 ft 275 kts 294°
2026-05-07 12:27 35.97638 140.44952 6521 ft 279 kts 304°
2026-05-07 12:28 35.98700 140.42964 6093 ft 276 kts 292°
2026-05-07 12:28 35.99338 140.40768 5709 ft 270 kts 279°
2026-05-07 12:28 35.99595 140.38492 5318 ft 265 kts 270°
2026-05-07 12:28 35.99623 140.36227 4935 ft 263 kts 265°
2026-05-07 12:29 35.99507 140.33984 4441 ft 264 kts 262°
2026-05-07 12:29 35.99252 140.31719 3915 ft 266 kts 257°
2026-05-07 12:29 35.98851 140.29535 3729 ft 254 kts 250°
2026-05-07 12:29 35.97919 140.27799 3619 ft 238 kts 218°
2026-05-07 12:30 35.96443 140.27048 3509 ft 230 kts 187°
2026-05-07 12:30 35.94889 140.27393 3321 ft 231 kts 158°
2026-05-07 12:30 35.93496 140.28374 3038 ft 230 kts 154°
2026-05-07 12:30 35.92131 140.29390 2746 ft 229 kts 154°
2026-05-07 12:31 35.90767 140.30387 2448 ft 227 kts 155°
2026-05-07 12:31 35.89410 140.31372 2142 ft 223 kts 155°
2026-05-07 12:31 35.88099 140.32322 1864 ft 222 kts 155°
2026-05-07 12:31 35.86783 140.33277 1573 ft 214 kts 155°
2026-05-07 12:32 35.85529 140.34186 1307 ft 204 kts 154°
2026-05-07 12:32 35.84341 140.35046 1051 ft 197 kts 153°
2026-05-07 12:32 35.83189 140.35879 808 ft 184 kts 151°
2026-05-07 12:32 35.82129 140.36646 567 ft 170 kts 150°
2026-05-07 12:33 35.80295 140.37976 154 ft 139 kts 150°
2026-05-07 12:33 35.79556 140.38506 144 ft 100 kts 149°
2026-05-07 12:33 35.79101 140.38832 145 ft 51 kts 150°
2026-05-07 12:34 35.78841 140.39020 142 ft 40 kts 151°
2026-05-07 12:34 35.78599 140.39081 143 ft 29 kts 175°
2026-05-07 12:34 35.78430 140.39124 143 ft 24 kts 167°
2026-05-07 12:34 35.78267 140.39170 143 ft 24 kts 165°
2026-05-07 12:35 35.78163 140.39197 143 ft 19 kts 183°
2026-05-07 12:35 35.78095 140.39115 143 ft 5 kts 219°
2026-05-07 12:35 35.78054 140.39119 143 ft 8 kts 162°
2026-05-07 12:35 35.77987 140.39166 143 ft 14 kts 147°
2026-05-07 12:36 35.77932 140.39279 144 ft 17 kts 117°
2026-05-07 12:36 35.77877 140.39413 144 ft 18 kts 117°
2026-05-07 12:36 35.77794 140.39521 144 ft 17 kts 140°
2026-05-07 12:36 35.77694 140.39595 144 ft 17 kts 149°
2026-05-07 12:37 35.77585 140.39674 144 ft 19 kts 149°
2026-05-07 12:37 35.77466 140.39760 144 ft 20 kts 149°
2026-05-07 12:37 35.77339 140.39849 144 ft 22 kts 150°
2026-05-07 12:37 35.77205 140.39945 144 ft 23 kts 149°
2026-05-07 12:38 35.77060 140.39994 144 ft 22 kts 205°
2026-05-07 12:38 35.76929 140.39922 144 ft 17 kts 201°
2026-05-07 12:38 35.76861 140.39824 144 ft 17 kts 282°
2026-05-07 12:38 35.76908 140.39695 144 ft 16 kts 295°
2026-05-07 12:39 35.76906 140.39572 144 ft 15 kts 240°
2026-05-07 12:39 35.76857 140.39457 144 ft 16 kts 262°
2026-05-07 12:39 35.76808 140.39366 144 ft 13 kts 205°
2026-05-07 12:39 35.76718 140.39315 144 ft 15 kts 205°
2026-05-07 12:40 35.76619 140.39259 144 ft 15 kts 203°
2026-05-07 12:40 35.76526 140.39211 144 ft 14 kts 202°
2026-05-07 12:40 35.76431 140.39163 144 ft 14 kts 202°
2026-05-07 12:40 35.76341 140.39110 144 ft 14 kts 206°
2026-05-07 12:41 35.76266 140.39066 143 ft 12 kts 205°
2026-05-07 12:41 35.76209 140.39015 154 ft 7 kts 277°
2026-05-07 12:41 35.76233 140.38963 138 ft 6 kts 294°
2026-05-07 12:41 35.76249 140.38919 144 ft 3 kts 294°
2026-05-07 12:42 35.76251 140.38913 144 ft 0 kts 294°